Regional Weather Roundup
Issued by NWS Upton, NY

Current Version | Previous Version | Graphics & Text | Print | Product List | Glossary Off
Versions: 1 2 3 4 5 6 7 8 9 10 11 12 13 14 15 16 17 18 19 20 21 22 23 24 25 26 27 28 29 30 31 32 33 34 35 36 37 38 39 40 41 42 43 44 45 46 47 48 49 50

000
ASUS41 KOKX 191705
RWROKX
REGIONAL WEATHER ROUNDUP
NATIONAL WEATHER SERVICE NEW YORK NY
100 PM EDT TUE AUG 19 2014

NOTE: "FAIR" INDICATES FEW OR NO CLOUDS BELOW 12,000 FEET WITH NO
SIGNIFICANT WEATHER AND/OR OBSTRUCTIONS TO VISIBILITY.

NYZ071-072-176-178-NJZ106-104-191800-
NEW YORK CITY METRO AREA


CITY           SKY/WX    TMP DP  RH WIND       PRES   REMARKS
CENTRAL PARK   SUNNY     81  59  47 VRB5      29.93F
LAGUARDIA APRT MOSUNNY   77  61  57 NE13      29.91F
KENNEDY INTL   MOSUNNY   78  64  61 SE8       29.91F
NEWARK/LIBERTY MOSUNNY   79  61  53 VRB3      29.91F
BRNX BOT. GARD   N/A     77  59  53 W5        29.92S
TETERBORO      MOSUNNY   79  57  46 E5        29.89F
$$

NYZ177-179-078>081-191800-
LONG ISLAND NEW YORK

CITY           SKY/WX    TMP DP  RH WIND       PRES   REMARKS
FARMINGDALE    SUNNY     74  63  68 VRB7      29.92F
ISLIP          MOSUNNY   76  62  62 SE7       29.91F
SHIRLEY        MOSUNNY   75  59  57 SE10      29.94S
WESTHAMPTON    SUNNY     76  56  49 SE9       29.94F
MONTAUK POINT    N/A     73  56  54 NE6       29.94F
$$

NYZ052-065-067-191800-
HUDSON VALLEY

CITY           SKY/WX    TMP DP  RH WIND       PRES   REMARKS
WHITE PLAINS   MOSUNNY   76  56  49 SE8       29.92F
NEWBURGH       SUNNY     75  55  50 VRB7      29.94F
MONTGOMERY     SUNNY     76  53  44 VRB3      29.92F
POUGHKEEPSIE   SUNNY     76  53  44 CALM      29.91F
ALBANY         MOSUNNY   73  52  47 E7        29.94F
$$

NJZ001-105-106-008-010-013-015-019>022-104-191800-
NEW JERSEY

CITY           SKY/WX    TMP DP  RH WIND       PRES   REMARKS
NEWARK/LIBERTY MOSUNNY   79  61  53 VRB3      29.91F
TETERBORO      MOSUNNY   79  57  46 E5        29.89F
CALDWELL       SUNNY     80  56  43 VRB7      29.92F
MORRISTOWN     PTSUNNY   81  57  44 CALM      29.92S
SOMERVILLE     MOSUNNY   83  58  42 VRB3      29.88F
LINDEN         CLOUDY    82  65  57 S8        29.93R
SUSSEX         SUNNY     81  55  40 NW7       29.92F
ANDOVER          N/A     81  58  45 CALM      29.92F
TRENTON        MOSUNNY   81  61  50 VRB3      29.90S
MILLVILLE      SUNNY     81  64  56 SE8       29.89S
ATLANTIC CITY  MOSUNNY   80  64  58 E8        29.90S
WRIGHTSTOWN    PTSUNNY   81  64  57 E6        29.87S
TOMS RIVER     CLOUDY    79  63  57 S8        29.90S
BELMAR         MOSUNNY   79  64  61 E12       29.90F
$$

PAZ047>061-062-071-191800-
EASTERN PENNSYLVANIA

CITY           SKY/WX    TMP DP  RH WIND       PRES   REMARKS
PHILADELPHIA   MOSUNNY   83  64  52 VRB3      29.89F
ALLENTOWN      SUNNY     81  56  42 CALM      29.91F
SCRANTON       SUNNY     80  58  46 CALM      29.90F
$$

CTZ002-004>006-009-010-012-RIZ004-006-007-MAZ004-011-015-191800-
SOUTHERN NEW ENGLAND
 IN CT

CITY           SKY/WX    TMP DP  RH WIND       PRES   REMARKS
BRADLEY INTL   MOSUNNY   76  52  43 VRB3      29.92F
HARTFORD       SUNNY     75  51  43 E5        29.92F
DANBURY        SUNNY     74  52  46 VRB3      29.94F
WTRBRY/OXFORD  MOSUNNY   73  54  49 CALM      29.96F
BRIDGEPORT     SUNNY     73  54  51 E9        29.93F
MERIDEN        SUNNY     77  51  40 MISG      29.93F
NEW HAVEN      MOSUNNY   77  52  41 SE8       29.94S
CHESTER        FAIR      73  52  46 CALM      29.95S
GROTON         SUNNY     72  57  59 S10       29.92F
WILLIMANTIC    SUNNY     76  52  43 NW8       29.93F

 IN RI

CITY           SKY/WX    TMP DP  RH WIND       PRES   REMARKS
PROVIDENCE     MOSUNNY   76  52  43 SW7       29.93F
BLOCK ISLAND   SUNNY     72  54  53 E6        29.94S
WESTERLY       SUNNY     74  52  46 S8        29.94S

 IN MA

CITY           SKY/WX    TMP DP  RH WIND       PRES   REMARKS
BOSTON         MOSUNNY   71  52  50 E12       29.92F
WORCESTER      SUNNY     70  49  47 VRB7      29.95S
WESTFIELD      SUNNY     75  52  44 VRB3      29.93F
PROVINCETOWN   SUNNY     68  57  68 MISG      29.93F
NANTUCKET      SUNNY     70  59  68 S9        29.93S
$$

ANZ330-335-338-340-345-350-353-355-191800-
COASTAL MARINE OBSERVATIONS


STATION/POSITION TIME  SKY/WX   TEMP    WIND        PRES    VSBY  WAVE
                                AIR SEA DIR/SP/G                  HT/PER
                 (UTC)          (F)     (DEG/KT/KT) (MB)    (MI)  (FT/S)
NY HARB ENTRANCE NOT AVBL
4S FIRE IS       NOT AVBL
23SW MTP         1700            68 69              1013.2          2/ 8
HUDSON CANYON    1700            73 73  120/  8/ 10 1012.5          2/ 9
EXECUTION ROCKS  1700            70 72   60/ 12/ 16   N/A
WESTERN LI SOUND 1700            70      70/ 10/ 12   N/A           1/ 3
CENTRAL LI SOUND 1600            69 72   80/  6/  8   N/A           1
EASTERN LI SOUND 1600            69 69  160/  6/  8   N/A
ROBBINS REEF     1600            72     180/ 13/ 14   N/A
$$


>>>>>>>>>>>>>>>>>>>>>>>>>>>> KEY <<<<<<<<<<<<<<<<<<<<<<<<<<<
>                                                          <
>     SKY/WX - SKY CONDITION/PRESENT WEATHER               <
>     TMP    - TEMPERATURE IN FAHRENHEIT                   <
>     DP     - DEWPOINT IN FAHRENHEIT                      <
>     RH     - RELATIVE HUMIDITY IN PERCENT                <
>     WIND   - DIRECTION AND SPEED IN MPH                  <
>     PRES   - MEAN SEA LEVEL PRESSURE IN INCHES OF HG     <
>     WCI    - WIND CHILL INDEX                            <
>     VSB    - VISIBILITY IN MILES                         <
>     HX     - HEAT INDEX                                  <
>     TC     - TEMPERATURE IN CELSIUS                      <
>     VRB    - VARIABLE WIND DIRECTION                     <
>                                                          <
>>>>>>>>>>>>>>>>>>>>>>>>>>>> KEY <<<<<<<<<<<<<<<<<<<<<<<<<<<





USA.gov is the U.S. government's official web portal to all federal, state and local government web resources and services.